Share

Port Lions, AK (99550)

5:05 AM AKDT on April 24, 2014 (GMT -0800)
Port Lions (KAKKODIA9) Elev 13 ft | 57.87 °N, 152.88 °W | Change Station

Current weather conditions updated 39 seconds ago

Overcast
Overcast
39.8 °F
Feels Like 34 °F
N
8.1
Wind Variable Wind from NE
Sunrise 6:37 AM
Sunset 9:44 PM
Moon Waning Crescent

Today is forecast to be nearly the same temperature as yesterday. Chance of showers.

Pressure 29.61 in
Visibility 10.0 miles
Clouds Few 900 ft
Mostly Cloudy 2500 ft
Overcast 3000 ft
Windchill 34 °F
Dew Point 38 °F
Humidity 92%
Rainfall -999.00 in
Snow Depth Not available.
UV 0 out of 16
Pollen Not available.
Air Quality Not available.
Flu Activity Sporadic
METAR PADQ 241253Z 05007KT 10SM FEW009 BKN025 OVC030 04/04 A2961 RMK AO2 SLP026 T00440039

More Conditions Fewer Conditions

Pressure 29.61 in
Visibility 10.0 miles
Clouds Few 900 ft
Mostly Cloudy 2500 ft
Overcast 3000 ft
Windchill 34 °F
Dew Point 38 °F
Humidity 92%
Rainfall -999.00 in
Snow Depth Not available.
UV 0 out of 16
Pollen Not available.
Air Quality Not available.
Flu Activity Sporadic
METAR PADQ 241253Z 05007KT 10SM FEW009 BKN025 OVC030 04/04 A2961 RMK AO2 SLP026 T00440039

More Conditions Fewer Conditions

10-Day Weather Forecast

Almanac

Astronomy

Apr. 24, 2014 Rise Set
Actual Time 6:37 AM AKDT 9:44 PM AKDT
Civil Twilight 5:52 AM AKDT 10:30 PM AKDT
Nautical Twilight 4:50 AM AKDT 11:33 PM AKDT
Astronomical Twilight 3:15 AM AKDT 1:13 AM AKDT
Moon 4:58 AM AKDT 4:14 PM AKDT
Length of Visible Light 16h 38m
Length of Day
15h 07m
Tomorrow will be 4m 47s longer.
Waning Crescent, 26% of the Moon is Illuminated
Today
Waning Crescent
Apr 29
New
May 6
First Quarter
May 14
Full
May 21
Last Quarter

Today's Extremes

State Highs State Lows

Community

  • Stacked
    Stacked
  • clouds approaching Red Sox Nation
    clouds approaching Red Sox Nation
  • Balance
    Balance
  • Citysky
    Citysky
  • Nestled In
    Nestled In

WunderPhotos

Upload Photos

1,704,596 photos uploaded!

Nearby

Snow Depth

Station Depth Elevation
Port Graham 2 in 300 ft
Nuka Glacier 26 in 1250 ft
Mcneil Canyon 3 in 1320 ft
MF Bradley River 17 in 2300 ft
Cooper Lake 18 in 1200 ft

Coastal Water Temperatures

Place Temperature
No Stations Reporting

Earthquake Activity

City Distance Mag. Time & Date
No recent earthquake activity has been reported nearby.
Minimum magnitude displayed is 2.5.

Nearby Weather Stations

Station Location Temp. Windchill Dew Point Humidity Wind Precip. Elev Updated Type
Port Lions, Kodiak, AK 39.8 °F 34 °F 38 °F 92% NE  at  8.1 mph 0.00 in / hr 13 ft 5:05 AM AKDT Normal
HADS TERROR R AT MOUTH NR KODIAK AK , Port Lions, AK 35 °F 35 °F - - North  at  - 0.00 in / hr 215 ft 4:00 AM AKDT MADIS

Show More Stations Show Fewer Stations

What do you think?

We're not finished. Please let us know what you like, what you don't like, and what you are still missing.